Погода в Озаску

Бразилия     23°31′51″S   46°47′10″W
темп.,
°C
ветер,
м/с
пор.,
м/с
влажн.,
%
обл.,
%
осадки,
мм/ч
давл.,
гПа
погр.,
м
27 февраля, сб
сб2700:00+21в357876 0.3 1014499
03:00+20в248169 0.3 1013379
06:00+20всв128210 0.0 1014288
09:00+24всв12595 0.0 1015769
12:00+27ссв324935 1.3 10151331
15:00+27в235260 6.3 10131262
18:00+23вюв466897 8.1 1012892
21:00+22вюв357599 14.3 1014655
28 февраля, вс
вс2800:00+21ююв2380100 4.6 1014382
03:00+21в2470100 5.3 1013455
06:00+20всв237467 0.0 1014224
09:00+24св245665 0.0 1014643
12:00+28с354386 0.0 10141506
15:00+29с554044 0.1 10121776
18:00+26вюв224662 1.1 10121038
21:00+24вюв356357 2.8 1013554
1 марта, пн
пн100:00+23в366681 0.0 1013508
03:00+21св237262 0.0 1012303
06:00+21с127431 0.0 1013201
09:00+24с475957 0.0 1013660
12:00+29с45450 0.3 10131530
15:00+29с544010 0.4 10111555
18:00+27всв114746 0.3 10111264
21:00+26вюв225473 0.4 1013676
2 марта, вт
вт200:00+24св225999 0.0 1013295
03:00+23с126694 0.0 1012179
06:00+22с2469100 0.0 1013232
09:00+25с4860100 0.0 1014661
12:00+29ссз454598 0.0 10141521
15:00+29ссз554884 1.8 10121216
18:00+27с235399 6.9 1012822
21:00+26вюв225599 9.4 1014649
3 марта, ср
ср300:00+24св2361100 0.1 1015282
03:00+23с1265100 1.4 1014149
06:00+22ссз2371100 3.6 1015165
09:00+23ссз3668100 6.4 1017353
12:00+25ссз465897 0.6 10161149
15:00+28ссз444789 0.8 10141413
18:00+26ссз2357100 2.1 1013561
21:00+25с1262100 3.1 1015302